START_TIME,STEP,MOV.,M34,t_acc.,L5,t_acc.,L18,t_acc.,L14,t_acc.
1980-11-15 18:00:13.290 ,1,0,0.,12.0,0.,12.0,0.,12.0,0.,12.0
1980-11-15 18:00:25.290 ,1,0,0.,12.0,0.,12.0,0.,12.0,0.,12.0
1980-11-15 18:00:37.290 ,2,1,0.,12.0,0.,12.0,0.,12.0,0.,12.0
1980-11-15 18:00:49.290 ,2,1,0.,12.0,0.,12.0,0.,12.0,0.,12.0
1980-11-15 18:01:01.290 ,2,0,0.,12.0,0.,12.0,0.,12.0,0.,12.0
1980-11-15 18:01:13.290 ,2,0,0.,12.0,0.,12.0,0.,12.0,0.,12.0
1980-11-15 18:01:25.290 ,3,1,0.,12.0,0.,12.0,0.,12.0,0.,12.0
1980-11-15 18:01:37.290 ,3,1,0.,12.0,0.,12.0,0.,12.0,0.,12.0
1980-11-15 18:01:49.290 ,0,0,0.,12.0,0.,12.0,0.,12.0,0.,12.0
1980-11-15 18:02:01.290 ,0,0,0.,12.0,0.,12.0,0.,12.0,0.,12.0
1980-11-15 18:02:38.490 ,0,0,0.,12.0,0.,12.0,0.,12.0,0.,12.0
1980-11-15 18:02:50.490 ,0,0,0.,12.0,0.,12.0,0.,12.0,0.,12.0
1980-11-15 18:03:01.290 ,5,1,0.,12.0,0.,12.0,0.,12.0,0.,12.0
1980-11-15 18:03:13.290 ,5,1,0.,12.0,0.,12.0,0.,12.0,0.,12.0
1980-11-15 18:03:25.290 ,5,0,0.,12.0,0.,12.0,0.,12.0,0.,12.0
1980-11-15 18:03:37.290 ,5,0,0.,12.0,0.,12.0,0.,12.0,0.,12.0
1980-11-15 18:03:49.290 ,6,1,0.,12.0,0.,12.0,0.,12.0,0.,12.0
1980-11-15 18:04:01.290 ,6,1,0.,12.0,0.,12.0,0.,12.0,0.,12.0
1980-11-15 18:04:13.290 ,6,0,0.,12.0,0.,12.0,0.,12.0,0.,12.0
1980-11-15 18:04:25.290 ,6,0,0.,12.0,0.,12.0,0.,12.0,0.,12.0
1980-11-15 18:04:37.290 ,7,1,0.,12.0,0.,12.0,0.,12.0,0.,12.0
1980-11-15 18:04:49.290 ,7,1,0.,12.0,3.,12.0,0.,12.0,0.,12.0
1980-11-15 18:05:01.290 ,7,0,0.,12.0,3.,12.0,0.,12.0,0.,12.0
1980-11-15 18:05:13.290 ,7,0,0.,12.0,3.,12.0,0.,12.0,0.,12.0
1980-11-15 18:05:25.290 ,7,1,0.,12.0,6.,12.0,0.,12.0,0.,12.0
1980-11-15 18:05:37.290 ,7,1,0.,12.0,3.,12.0,0.,12.0,0.,12.0
1980-11-15 18:05:49.290 ,7,0,0.,12.0,2.,12.0,0.,12.0,0.,12.0
1980-11-15 18:06:01.290 ,7,0,0.,12.0,5.,12.0,0.,12.0,0.,12.0
1980-11-15 18:06:13.290 ,6,1,0.,12.0,3.,12.0,0.,12.0,0.,12.0
1980-11-15 18:06:25.290 ,6,1,0.,12.0,1.,12.0,0.,12.0,0.,12.0
1980-11-15 18:06:37.290 ,6,0,0.,12.0,0.,12.0,0.,12.0,0.,12.0
1980-11-15 18:06:49.290 ,6,0,0.,12.0,0.,12.0,0.,12.0,0.,12.0
1980-11-15 18:07:01.290 ,5,1,0.,12.0,0.,12.0,0.,12.0,0.,12.0
1980-11-15 18:07:13.290 ,5,1,0.,12.0,0.,12.0,0.,12.0,0.,12.0
1980-11-15 18:07:25.290 ,5,0,0.,12.0,0.,12.0,0.,12.0,0.,12.0
1980-11-15 18:07:37.290 ,5,0,0.,12.0,0.,12.0,0.,12.0,0.,12.0
1980-11-15 18:07:49.290 ,4,1,0.,12.0,0.,12.0,0.,12.0,0.,12.0
1980-11-15 18:08:01.290 ,4,1,0.,12.0,0.,12.0,0.,12.0,0.,12.0
1980-11-15 18:08:13.290 ,4,0,0.,12.0,0.,12.0,0.,12.0,0.,12.0
1980-11-15 18:08:25.290 ,4,0,0.,12.0,0.,12.0,0.,12.0,0.,12.0
1980-11-15 18:08:37.290 ,3,1,0.,12.0,0.,12.0,0.,12.0,0.,12.0
1980-11-15 18:08:49.290 ,3,1,0.,12.0,0.,12.0,0.,12.0,0.,12.0
1980-11-15 18:09:01.290 ,3,0,0.,12.0,0.,12.0,0.,12.0,0.,12.0
1980-11-15 18:09:13.290 ,3,0,0.,12.0,0.,12.0,0.,12.0,0.,12.0
1980-11-15 18:09:25.290 ,2,1,0.,12.0,0.,12.0,0.,12.0,0.,12.0
1980-11-15 18:09:37.290 ,2,1,0.,12.0,0.,12.0,0.,12.0,0.,12.0
1980-11-15 18:09:49.290 ,2,0,0.,12.0,0.,12.0,0.,12.0,0.,12.0
1980-11-15 18:10:01.290 ,2,0,0.,12.0,0.,12.0,0.,12.0,0.,12.0
1980-11-15 18:10:13.290 ,1,1,0.,12.0,0.,12.0,0.,12.0,0.,12.0
1980-11-15 18:10:25.290 ,1,1,0.,12.0,0.,12.0,0.,12.0,0.,12.0
1980-11-15 18:10:37.290 ,1,0,0.,12.0,0.,12.0,0.,12.0,0.,12.0
1980-11-15 18:10:49.290 ,1,0,0.,12.0,0.,12.0,0.,12.0,0.,12.0
1980-11-15 18:11:01.290 ,0,1,0.,12.0,0.,12.0,0.,12.0,0.,12.0
1980-11-15 18:11:13.290 ,0,1,0.,12.0,0.,12.0,0.,12.0,0.,12.0
1980-11-15 18:11:25.290 ,0,0,0.,12.0,0.,12.0,0.,12.0,0.,12.0
1980-11-15 18:11:37.290 ,0,0,0.,12.0,0.,12.0,0.,12.0,0.,12.0
1980-11-15 18:11:49.290 ,0,1,0.,12.0,0.,12.0,0.,12.0,0.,12.0
1980-11-15 18:12:01.290 ,0,1,0.,12.0,0.,12.0,0.,12.0,0.,12.0
1980-11-15 18:12:13.290 ,0,0,0.,12.0,0.,12.0,0.,12.0,0.,12.0
1980-11-15 18:12:25.290 ,0,0,0.,12.0,0.,12.0,0.,12.0,0.,12.0
1980-11-15 18:12:37.290 ,1,1,0.,12.0,0.,12.0,0.,12.0,0.,12.0
1980-11-15 18:12:49.290 ,1,1,0.,12.0,0.,12.0,0.,12.0,0.,12.0
1980-11-15 18:13:01.290 ,1,0,0.,12.0,0.,12.0,0.,12.0,0.,12.0
1980-11-15 18:13:13.290 ,1,0,0.,12.0,1.,12.0,0.,12.0,0.,12.0
1980-11-15 18:13:25.290 ,2,1,0.,12.0,0.,12.0,0.,12.0,0.,12.0
1980-11-15 18:13:37.290 ,2,1,0.,12.0,0.,12.0,0.,12.0,0.,12.0
1980-11-15 18:13:49.290 ,2,0,0.,12.0,0.,12.0,0.,12.0,0.,12.0
1980-11-15 18:14:01.290 ,2,0,0.,12.0,0.,12.0,0.,12.0,0.,12.0
1980-11-15 18:14:13.290 ,3,1,0.,12.0,0.,12.0,0.,12.0,0.,12.0
1980-11-15 18:14:25.290 ,3,1,0.,12.0,0.,12.0,0.,12.0,0.,12.0
1980-11-15 18:14:37.290 ,3,0,0.,12.0,0.,12.0,0.,12.0,0.,12.0
1980-11-15 18:14:49.290 ,3,0,0.,12.0,0.,12.0,0.,12.0,0.,12.0
1980-11-15 18:15:01.290 ,4,1,0.,12.0,0.,12.0,0.,12.0,0.,12.0
1980-11-15 18:15:13.290 ,4,1,0.,12.0,0.,12.0,0.,12.0,0.,12.0
1980-11-15 18:15:25.290 ,4,0,0.,12.0,0.,12.0,0.,12.0,0.,12.0
1980-11-15 18:15:37.290 ,4,0,0.,12.0,0.,12.0,0.,12.0,0.,12.0
1980-11-15 18:15:49.290 ,5,1,0.,12.0,0.,12.0,0.,12.0,0.,12.0
1980-11-15 18:16:01.290 ,5,1,0.,12.0,0.,12.0,0.,12.0,0.,12.0
1980-11-15 18:16:13.290 ,5,0,0.,12.0,0.,12.0,0.,12.0,0.,12.0
1980-11-15 18:16:25.290 ,5,0,0.,12.0,0.,12.0,0.,12.0,0.,12.0
1980-11-15 18:16:37.290 ,6,1,0.,12.0,0.,12.0,0.,12.0,0.,12.0
1980-11-15 18:16:49.290 ,6,1,0.,12.0,0.,12.0,0.,12.0,0.,12.0
1980-11-15 18:17:01.290 ,6,0,0.,12.0,0.,12.0,0.,12.0,0.,12.0
1980-11-15 18:17:13.290 ,6,0,0.,12.0,0.,12.0,0.,12.0,0.,12.0
1980-11-15 18:17:25.290 ,7,1,0.,12.0,0.,12.0,0.,12.0,0.,12.0
1980-11-15 18:17:37.290 ,7,1,0.,12.0,0.,12.0,0.,12.0,0.,12.0
1980-11-15 18:17:49.290 ,7,0,0.,12.0,5.,12.0,0.,12.0,0.,12.0
1980-11-15 18:18:01.290 ,7,0,0.,12.0,2.,12.0,0.,12.0,0.,12.0
1980-11-15 18:18:13.290 ,7,1,0.,12.0,5.,12.0,0.,12.0,0.,12.0
1980-11-15 18:18:25.290 ,7,1,0.,12.0,4.,12.0,0.,12.0,0.,12.0
1980-11-15 18:18:37.290 ,7,0,0.,12.0,2.,12.0,0.,12.0,0.,12.0
1980-11-15 18:18:49.290 ,7,0,0.,12.0,1.,12.0,0.,12.0,0.,12.0
1980-11-15 18:19:01.290 ,6,1,0.,12.0,5.,12.0,0.,12.0,0.,12.0
1980-11-15 18:19:13.290 ,6,1,0.,12.0,2.,12.0,0.,12.0,0.,12.0
1980-11-15 18:19:25.290 ,6,0,0.,12.0,0.,12.0,0.,12.0,0.,12.0
1980-11-15 18:19:37.290 ,6,0,0.,12.0,0.,12.0,0.,12.0,0.,12.0
1980-11-15 18:19:49.290 ,5,1,0.,12.0,0.,12.0,0.,12.0,0.,12.0
1980-11-15 18:20:01.290 ,5,1,0.,12.0,0.,12.0,0.,12.0,0.,12.0
1980-11-15 18:20:13.290 ,5,0,0.,12.0,0.,12.0,0.,12.0,0.,12.0
1980-11-15 18:20:25.290 ,5,0,0.,12.0,0.,12.0,0.,12.0,0.,12.0
1980-11-15 18:20:37.290 ,4,1,0.,12.0,0.,12.0,0.,12.0,0.,12.0
1980-11-15 18:20:49.290 ,4,1,0.,12.0,0.,12.0,0.,12.0,0.,12.0
1980-11-15 18:21:01.290 ,4,0,0.,12.0,0.,12.0,0.,12.0,0.,12.0
1980-11-15 18:21:13.290 ,4,0,0.,12.0,0.,12.0,0.,12.0,0.,12.0
1980-11-15 18:21:25.290 ,3,1,0.,12.0,0.,12.0,0.,12.0,0.,12.0
1980-11-15 18:21:37.290 ,3,1,0.,12.0,0.,12.0,0.,12.0,0.,12.0
1980-11-15 18:21:49.290 ,3,0,0.,12.0,0.,12.0,0.,12.0,0.,12.0
1980-11-15 18:22:01.290 ,3,0,0.,12.0,0.,12.0,0.,12.0,0.,12.0
1980-11-15 18:22:13.290 ,2,1,0.,12.0,0.,12.0,0.,12.0,0.,12.0
1980-11-15 18:22:25.290 ,2,1,0.,12.0,0.,12.0,0.,12.0,0.,12.0
1980-11-15 18:22:37.290 ,2,0,0.,12.0,0.,12.0,0.,12.0,0.,12.0
1980-11-15 18:22:49.290 ,2,0,0.,12.0,0.,12.0,0.,12.0,0.,12.0
1980-11-15 18:23:01.290 ,1,1,0.,12.0,0.,12.0,0.,12.0,0.,12.0
1980-11-15 18:23:13.290 ,1,1,0.,12.0,0.,12.0,0.,12.0,0.,12.0
1980-11-15 18:23:25.290 ,1,0,0.,12.0,0.,12.0,0.,12.0,0.,12.0
1980-11-15 18:23:37.290 ,1,0,0.,12.0,0.,12.0,0.,12.0,0.,12.0
1980-11-15 18:23:49.290 ,0,1,0.,12.0,0.,12.0,0.,12.0,0.,12.0
1980-11-15 18:24:01.290 ,0,1,0.,12.0,0.,12.0,0.,12.0,0.,12.0
1980-11-15 18:24:13.290 ,0,0,0.,12.0,0.,12.0,0.,12.0,0.,12.0
1980-11-15 18:24:25.290 ,0,0,0.,12.0,0.,12.0,0.,12.0,0.,12.0
1980-11-15 18:24:37.290 ,0,1,0.,12.0,0.,12.0,0.,12.0,0.,12.0
1980-11-15 18:24:49.290 ,0,1,0.,12.0,0.,12.0,0.,12.0,0.,12.0
1980-11-15 18:25:01.290 ,0,0,0.,12.0,0.,12.0,0.,12.0,0.,12.0
1980-11-15 18:25:13.290 ,0,0,0.,12.0,0.,12.0,0.,12.0,0.,12.0
1980-11-15 18:25:25.290 ,1,1,0.,12.0,0.,12.0,0.,12.0,0.,12.0
1980-11-15 18:25:37.290 ,1,1,0.,12.0,0.,12.0,0.,12.0,0.,12.0
1980-11-15 18:25:49.290 ,1,0,,0,,0,,0,,0
1980-11-15 18:26:01.290 ,1,0,0.,12.0,0.,12.0,0.,12.0,0.,12.0
1980-11-15 18:26:13.290 ,2,1,0.,12.0,0.,12.0,0.,12.0,0.,12.0
1980-11-15 18:26:25.290 ,2,1,0.,12.0,0.,12.0,0.,12.0,0.,12.0
1980-11-15 18:26:37.290 ,2,0,0.,12.0,0.,12.0,0.,12.0,0.,12.0
1980-11-15 18:26:49.290 ,2,0,0.,12.0,0.,12.0,0.,12.0,0.,12.0
1980-11-15 18:27:01.290 ,3,1,0.,12.0,0.,12.0,0.,12.0,0.,12.0
1980-11-15 18:27:13.290 ,3,1,0.,12.0,0.,12.0,0.,12.0,0.,12.0
1980-11-15 18:27:25.290 ,3,0,0.,12.0,0.,12.0,0.,12.0,0.,12.0
1980-11-15 18:27:37.290 ,3,0,0.,12.0,0.,12.0,0.,12.0,0.,12.0
1980-11-15 18:27:49.290 ,4,1,0.,12.0,0.,12.0,0.,12.0,0.,12.0
1980-11-15 18:28:01.290 ,4,1,0.,12.0,0.,12.0,0.,12.0,0.,12.0
1980-11-15 18:28:13.290 ,4,0,0.,12.0,0.,12.0,0.,12.0,0.,12.0
1980-11-15 18:28:25.290 ,4,0,0.,12.0,0.,12.0,0.,12.0,0.,12.0
1980-11-15 18:28:37.290 ,5,1,0.,12.0,0.,12.0,0.,12.0,0.,12.0
1980-11-15 18:28:49.290 ,5,1,0.,12.0,0.,12.0,0.,12.0,0.,12.0
1980-11-15 18:29:01.290 ,5,0,0.,12.0,0.,12.0,0.,12.0,0.,12.0
1980-11-15 18:29:13.290 ,5,0,0.,12.0,0.,12.0,0.,12.0,0.,12.0
1980-11-15 18:29:25.290 ,6,1,0.,12.0,0.,12.0,0.,12.0,0.,12.0
1980-11-15 18:29:37.290 ,6,1,0.,12.0,0.,12.0,0.,12.0,0.,12.0
1980-11-15 18:29:49.290 ,6,0,0.,12.0,0.,12.0,0.,12.0,0.,12.0
1980-11-15 18:30:01.290 ,6,0,0.,12.0,0.,12.0,0.,12.0,0.,12.0
1980-11-15 18:30:13.290 ,7,1,0.,12.0,0.,12.0,0.,12.0,0.,12.0
1980-11-15 18:30:25.290 ,7,1,0.,12.0,3.,12.0,0.,12.0,0.,12.0
1980-11-15 18:30:37.290 ,7,0,0.,12.0,2.,12.0,0.,12.0,0.,12.0
1980-11-15 18:30:49.290 ,7,0,0.,12.0,1.,12.0,0.,12.0,0.,12.0
1980-11-15 18:31:01.290 ,7,1,0.,12.0,3.,12.0,0.,12.0,0.,12.0
1980-11-15 18:31:13.290 ,7,1,0.,12.0,2.,12.0,0.,12.0,0.,12.0
1980-11-15 18:31:25.290 ,7,0,0.,12.0,4.,12.0,0.,12.0,0.,12.0
1980-11-15 18:31:37.290 ,7,0,0.,12.0,5.,12.0,0.,12.0,0.,12.0
1980-11-15 18:31:49.290 ,6,1,0.,12.0,3.,12.0,0.,12.0,0.,12.0
1980-11-15 18:32:01.290 ,6,1,0.,12.0,0.,12.0,0.,12.0,0.,12.0
1980-11-15 18:32:13.290 ,6,0,0.,12.0,0.,12.0,0.,12.0,0.,12.0
1980-11-15 18:32:25.290 ,6,0,0.,12.0,0.,12.0,0.,12.0,0.,12.0
1980-11-15 18:32:37.290 ,5,1,0.,12.0,0.,12.0,0.,12.0,0.,12.0
1980-11-15 18:32:49.290 ,5,1,0.,12.0,0.,12.0,0.,12.0,0.,12.0
1980-11-15 18:33:01.290 ,5,0,0.,12.0,0.,12.0,0.,12.0,0.,12.0
1980-11-15 18:33:13.290 ,5,0,0.,12.0,0.,12.0,0.,12.0,0.,12.0
1980-11-15 18:33:25.290 ,4,1,0.,12.0,0.,12.0,0.,12.0,0.,12.0
1980-11-15 18:33:37.290 ,4,1,0.,12.0,0.,12.0,0.,12.0,0.,12.0
1980-11-15 18:33:49.290 ,4,0,0.,12.0,0.,12.0,0.,12.0,0.,12.0
1980-11-15 18:34:01.290 ,4,0,0.,12.0,0.,12.0,0.,12.0,0.,12.0
1980-11-15 18:34:13.290 ,3,1,0.,12.0,0.,12.0,0.,12.0,0.,12.0
1980-11-15 18:34:25.290 ,3,1,0.,12.0,0.,12.0,0.,12.0,0.,12.0
1980-11-15 18:34:37.290 ,3,0,0.,12.0,0.,12.0,0.,12.0,0.,12.0
1980-11-15 18:34:49.290 ,3,0,0.,12.0,0.,12.0,0.,12.0,0.,12.0
1980-11-15 18:35:01.290 ,2,1,0.,12.0,0.,12.0,0.,12.0,0.,12.0
1980-11-15 18:35:13.290 ,2,1,0.,12.0,0.,12.0,0.,12.0,0.,12.0
1980-11-15 18:35:25.290 ,2,0,0.,12.0,0.,12.0,0.,12.0,0.,12.0
1980-11-15 18:35:37.290 ,2,0,0.,12.0,0.,12.0,0.,12.0,0.,12.0
1980-11-15 18:35:49.290 ,1,1,0.,12.0,0.,12.0,0.,12.0,0.,12.0
1980-11-15 18:36:01.290 ,1,1,0.,12.0,0.,12.0,0.,12.0,0.,12.0
1980-11-15 18:36:13.290 ,1,0,0.,12.0,0.,12.0,0.,12.0,0.,12.0
1980-11-15 18:36:25.290 ,1,0,0.,12.0,0.,12.0,0.,12.0,0.,12.0
1980-11-15 18:36:37.290 ,0,1,0.,12.0,0.,12.0,0.,12.0,0.,12.0
1980-11-15 18:36:49.290 ,0,1,0.,12.0,0.,12.0,0.,12.0,0.,12.0
1980-11-15 18:37:01.290 ,0,0,0.,12.0,0.,12.0,0.,12.0,0.,12.0
1980-11-15 18:37:13.290 ,0,0,0.,12.0,0.,12.0,0.,12.0,0.,12.0
1980-11-15 18:37:25.290 ,0,1,0.,12.0,0.,12.0,0.,12.0,0.,12.0
1980-11-15 18:37:37.290 ,0,1,0.,12.0,0.,12.0,0.,12.0,0.,12.0
1980-11-15 18:37:49.290 ,0,0,0.,12.0,0.,12.0,0.,12.0,0.,12.0
1980-11-15 18:38:01.290 ,0,0,0.,12.0,0.,12.0,0.,12.0,0.,12.0
1980-11-15 18:38:13.290 ,1,1,0.,12.0,0.,12.0,0.,12.0,0.,12.0
1980-11-15 18:38:25.290 ,1,1,0.,12.0,0.,12.0,0.,12.0,0.,12.0
1980-11-15 18:38:37.290 ,1,0,0.,12.0,0.,12.0,0.,12.0,0.,12.0
1980-11-15 18:38:49.290 ,1,0,0.,12.0,0.,12.0,0.,12.0,0.,12.0
1980-11-15 18:39:01.290 ,2,1,0.,12.0,0.,12.0,0.,12.0,0.,12.0
1980-11-15 18:39:13.290 ,2,1,0.,12.0,0.,12.0,0.,12.0,0.,12.0
1980-11-15 18:39:25.290 ,2,0,0.,12.0,0.,12.0,0.,12.0,0.,12.0
1980-11-15 18:39:37.290 ,2,0,0.,12.0,0.,12.0,0.,12.0,0.,12.0
1980-11-15 18:39:49.290 ,3,1,0.,12.0,0.,12.0,0.,12.0,0.,12.0
1980-11-15 18:40:01.290 ,3,1,0.,12.0,0.,12.0,0.,12.0,0.,12.0
1980-11-15 18:40:13.290 ,3,0,0.,12.0,0.,12.0,0.,12.0,0.,12.0
1980-11-15 18:40:25.290 ,3,0,0.,12.0,0.,12.0,0.,12.0,0.,12.0
1980-11-15 18:40:37.290 ,4,1,0.,12.0,0.,12.0,0.,12.0,0.,12.0
1980-11-15 18:40:49.290 ,4,1,0.,12.0,0.,12.0,0.,12.0,0.,12.0
1980-11-15 18:41:01.290 ,4,0,0.,12.0,0.,12.0,0.,12.0,0.,12.0
1980-11-15 18:41:13.290 ,4,0,0.,12.0,0.,12.0,0.,12.0,0.,12.0
1980-11-15 18:41:25.290 ,5,1,0.,12.0,0.,12.0,0.,12.0,0.,12.0
1980-11-15 18:41:37.290 ,5,1,0.,12.0,0.,12.0,0.,12.0,0.,12.0
1980-11-15 18:41:49.290 ,5,0,0.,12.0,0.,12.0,0.,12.0,0.,12.0
1980-11-15 18:42:01.290 ,5,0,0.,12.0,0.,12.0,0.,12.0,0.,12.0
1980-11-15 18:42:13.290 ,6,1,0.,12.0,0.,12.0,0.,12.0,0.,12.0
1980-11-15 18:42:25.290 ,6,1,0.,12.0,0.,12.0,0.,12.0,0.,12.0
1980-11-15 18:42:37.290 ,0,0,0.,12.0,0.,12.0,0.,12.0,0.,12.0
1980-11-15 18:42:49.290 ,0,0,0.,12.0,0.,12.0,0.,12.0,0.,12.0
1980-11-15 18:46:03.090 ,0,0,,0,,0,,0,,0
1980-11-15 18:46:15.090 ,0,0,0.,12.0,0.,12.0,0.,12.0,0.,12.0
1980-11-15 18:46:13.290 ,4,1,0.,12.0,0.,12.0,0.,12.0,0.,12.0
1980-11-15 18:46:25.290 ,4,1,0.,12.0,0.,12.0,0.,12.0,0.,12.0
1980-11-15 18:46:37.290 ,4,0,0.,12.0,0.,12.0,0.,12.0,0.,12.0
1980-11-15 18:46:49.290 ,4,0,0.,12.0,0.,12.0,0.,12.0,0.,12.0
1980-11-15 18:47:01.290 ,3,1,0.,12.0,0.,12.0,0.,12.0,0.,12.0
1980-11-15 18:47:13.290 ,3,1,0.,12.0,0.,12.0,0.,12.0,0.,12.0
1980-11-15 18:47:25.290 ,3,0,0.,12.0,0.,12.0,0.,12.0,0.,12.0
1980-11-15 18:47:37.290 ,3,0,0.,12.0,0.,12.0,0.,12.0,0.,12.0
1980-11-15 18:47:49.290 ,2,1,0.,12.0,0.,12.0,0.,12.0,0.,12.0
1980-11-15 18:48:01.290 ,2,1,0.,12.0,0.,12.0,0.,12.0,0.,12.0
1980-11-15 18:48:13.290 ,2,0,0.,12.0,0.,12.0,0.,12.0,0.,12.0
1980-11-15 18:48:25.290 ,2,0,0.,12.0,0.,12.0,0.,12.0,0.,12.0
1980-11-15 18:48:37.290 ,1,1,0.,12.0,0.,12.0,0.,12.0,0.,12.0
1980-11-15 18:48:49.290 ,1,1,0.,12.0,0.,12.0,0.,12.0,0.,12.0
1980-11-15 18:49:01.290 ,1,0,0.,12.0,0.,12.0,0.,12.0,0.,12.0
1980-11-15 18:49:13.290 ,1,0,0.,12.0,0.,12.0,0.,12.0,0.,12.0
1980-11-15 18:49:25.290 ,0,1,0.,12.0,0.,12.0,0.,12.0,0.,12.0
1980-11-15 18:49:37.290 ,0,1,0.,12.0,0.,12.0,0.,12.0,0.,12.0
1980-11-15 18:49:49.290 ,0,0,0.,12.0,0.,12.0,0.,12.0,0.,12.0
1980-11-15 18:50:01.290 ,0,0,0.,12.0,0.,12.0,0.,12.0,0.,12.0
1980-11-15 18:50:13.290 ,0,1,0.,12.0,0.,12.0,0.,12.0,0.,12.0
1980-11-15 18:50:25.290 ,0,1,0.,12.0,0.,12.0,0.,12.0,0.,12.0
1980-11-15 18:50:37.290 ,0,0,0.,12.0,0.,12.0,0.,12.0,0.,12.0
1980-11-15 18:50:49.290 ,0,0,0.,12.0,0.,12.0,0.,12.0,0.,12.0
1980-11-15 18:51:01.290 ,1,1,0.,12.0,0.,12.0,0.,12.0,0.,12.0
1980-11-15 18:51:13.290 ,1,1,0.,12.0,0.,12.0,0.,12.0,0.,12.0
1980-11-15 18:51:25.290 ,1,0,0.,12.0,0.,12.0,0.,12.0,0.,12.0
1980-11-15 18:51:37.290 ,1,0,0.,12.0,0.,12.0,0.,12.0,0.,12.0
1980-11-15 18:51:49.290 ,2,1,0.,12.0,0.,12.0,0.,12.0,0.,12.0
1980-11-15 18:52:01.290 ,2,1,0.,12.0,0.,12.0,0.,12.0,0.,12.0
1980-11-15 18:52:13.290 ,2,0,0.,12.0,0.,12.0,0.,12.0,0.,12.0
1980-11-15 18:52:25.290 ,2,0,0.,12.0,0.,12.0,0.,12.0,0.,12.0
1980-11-15 18:52:37.290 ,3,1,0.,12.0,0.,12.0,0.,12.0,0.,12.0
1980-11-15 18:52:49.290 ,3,1,0.,12.0,0.,12.0,0.,12.0,0.,12.0
1980-11-15 18:53:01.290 ,3,0,0.,12.0,0.,12.0,0.,12.0,0.,12.0
1980-11-15 18:53:13.290 ,3,0,0.,12.0,0.,12.0,0.,12.0,0.,12.0
1980-11-15 18:53:25.290 ,4,1,0.,12.0,0.,12.0,0.,12.0,0.,12.0
1980-11-15 18:53:37.290 ,4,1,0.,12.0,0.,12.0,0.,12.0,0.,12.0
1980-11-15 18:53:49.290 ,4,0,0.,12.0,0.,12.0,0.,12.0,0.,12.0
1980-11-15 18:54:01.290 ,4,0,0.,12.0,0.,12.0,0.,12.0,0.,12.0
1980-11-15 18:54:13.290 ,5,1,0.,12.0,0.,12.0,0.,12.0,0.,12.0
1980-11-15 18:54:25.290 ,5,1,0.,12.0,0.,12.0,0.,12.0,0.,12.0
1980-11-15 18:54:37.290 ,5,0,0.,12.0,0.,12.0,0.,12.0,0.,12.0
1980-11-15 18:54:49.290 ,5,0,0.,12.0,0.,12.0,0.,12.0,0.,12.0
1980-11-15 18:55:01.290 ,6,1,0.,12.0,0.,12.0,0.,12.0,0.,12.0
1980-11-15 18:55:13.290 ,6,1,0.,12.0,0.,12.0,0.,12.0,0.,12.0
1980-11-15 18:55:25.290 ,6,0,0.,12.0,0.,12.0,0.,12.0,0.,12.0
1980-11-15 18:55:37.290 ,6,0,0.,12.0,0.,12.0,0.,12.0,0.,12.0
1980-11-15 18:55:49.290 ,7,1,0.,12.0,0.,12.0,0.,12.0,0.,12.0
1980-11-15 18:56:01.290 ,7,1,0.,12.0,1.,12.0,0.,12.0,0.,12.0
1980-11-15 18:56:13.290 ,7,0,0.,12.0,4.,12.0,0.,12.0,0.,12.0
1980-11-15 18:56:25.290 ,7,0,0.,12.0,3.,12.0,0.,12.0,0.,12.0
1980-11-15 18:56:37.290 ,7,1,0.,12.0,3.,12.0,0.,12.0,0.,12.0
1980-11-15 18:56:49.290 ,7,1,0.,12.0,1.,12.0,0.,12.0,0.,12.0
1980-11-15 18:57:01.290 ,7,0,0.,12.0,2.,12.0,0.,12.0,0.,12.0
1980-11-15 18:57:13.290 ,7,0,0.,12.0,5.,12.0,0.,12.0,0.,12.0
1980-11-15 18:57:25.290 ,6,1,0.,12.0,1.,12.0,0.,12.0,0.,12.0
1980-11-15 18:57:37.290 ,6,1,0.,12.0,0.,12.0,0.,12.0,0.,12.0
1980-11-15 18:57:49.290 ,6,0,0.,12.0,0.,12.0,0.,12.0,0.,12.0
1980-11-15 18:58:01.290 ,6,0,0.,12.0,0.,12.0,0.,12.0,0.,12.0
1980-11-15 18:58:13.290 ,5,1,0.,12.0,0.,12.0,0.,12.0,0.,12.0
1980-11-15 18:58:25.290 ,5,1,0.,12.0,0.,12.0,0.,12.0,0.,12.0
1980-11-15 18:58:37.290 ,5,0,0.,12.0,0.,12.0,0.,12.0,0.,12.0
1980-11-15 18:58:49.290 ,5,0,0.,12.0,0.,12.0,0.,12.0,0.,12.0
1980-11-15 18:59:01.290 ,4,1,0.,12.0,0.,12.0,0.,12.0,0.,12.0
1980-11-15 18:59:13.290 ,4,1,0.,12.0,0.,12.0,0.,12.0,0.,12.0
1980-11-15 18:59:25.290 ,4,0,0.,12.0,0.,12.0,0.,12.0,0.,12.0
1980-11-15 18:59:37.290 ,4,0,0.,12.0,0.,12.0,0.,12.0,0.,12.0
1980-11-15 18:59:49.290 ,3,1,0.,12.0,0.,12.0,0.,12.0,0.,12.0
1980-11-15 19:00:01.290 ,3,1,0.,12.0,0.,12.0,0.,12.0,0.,12.0
1980-11-15 19:00:13.290 ,3,0,0.,12.0,0.,12.0,0.,12.0,0.,12.0
1980-11-15 19:00:25.290 ,3,0,0.,12.0,0.,12.0,0.,12.0,0.,12.0
1980-11-15 19:00:37.290 ,2,1,0.,12.0,0.,12.0,0.,12.0,0.,12.0
1980-11-15 19:00:49.290 ,2,1,0.,12.0,0.,12.0,0.,12.0,0.,12.0
1980-11-15 19:01:01.290 ,2,0,0.,12.0,0.,12.0,0.,12.0,0.,12.0
1980-11-15 19:01:13.290 ,2,0,0.,12.0,0.,12.0,0.,12.0,0.,12.0
1980-11-15 19:01:25.290 ,1,1,0.,12.0,0.,12.0,0.,12.0,0.,12.0
1980-11-15 19:01:37.290 ,1,1,0.,12.0,0.,12.0,0.,12.0,0.,12.0
1980-11-15 19:01:49.290 ,1,0,0.,12.0,0.,12.0,0.,12.0,0.,12.0
1980-11-15 19:02:01.290 ,1,0,0.,12.0,0.,12.0,0.,12.0,0.,12.0
1980-11-15 19:02:13.290 ,0,1,0.,12.0,0.,12.0,0.,12.0,0.,12.0
1980-11-15 19:02:25.290 ,0,1,0.,12.0,0.,12.0,0.,12.0,0.,12.0
1980-11-15 19:02:37.290 ,0,0,0.,12.0,0.,12.0,0.,12.0,0.,12.0
1980-11-15 19:02:49.290 ,0,0,0.,12.0,0.,12.0,0.,12.0,0.,12.0
1980-11-15 19:03:01.290 ,0,1,0.,12.0,0.,12.0,0.,12.0,0.,12.0
1980-11-15 19:03:13.290 ,0,1,0.,12.0,0.,12.0,0.,12.0,0.,12.0
1980-11-15 19:03:25.290 ,0,0,0.,12.0,0.,12.0,0.,12.0,0.,12.0
1980-11-15 19:03:37.290 ,0,0,0.,12.0,0.,12.0,0.,12.0,0.,12.0
1980-11-15 19:03:49.290 ,1,1,0.,12.0,0.,12.0,0.,12.0,0.,12.0
1980-11-15 19:04:01.290 ,1,1,0.,12.0,0.,12.0,0.,12.0,0.,12.0
1980-11-15 19:04:13.290 ,1,0,0.,12.0,0.,12.0,0.,12.0,0.,12.0
1980-11-15 19:04:25.290 ,1,0,0.,12.0,0.,12.0,0.,12.0,0.,12.0
1980-11-15 19:04:37.290 ,2,1,0.,12.0,0.,12.0,0.,12.0,0.,12.0
1980-11-15 19:04:49.290 ,2,1,0.,12.0,0.,12.0,0.,12.0,0.,12.0
1980-11-15 19:05:01.290 ,2,0,0.,12.0,0.,12.0,0.,12.0,0.,12.0
1980-11-15 19:05:13.290 ,2,0,0.,12.0,0.,12.0,0.,12.0,0.,12.0
1980-11-15 19:05:25.290 ,3,1,0.,12.0,0.,12.0,0.,12.0,0.,12.0
1980-11-15 19:05:37.290 ,3,1,0.,12.0,0.,12.0,0.,12.0,0.,12.0
1980-11-15 19:05:49.290 ,3,0,0.,12.0,0.,12.0,0.,12.0,0.,12.0
1980-11-15 19:06:01.290 ,3,0,0.,12.0,0.,12.0,0.,12.0,0.,12.0
1980-11-15 19:06:13.290 ,4,1,0.,12.0,0.,12.0,0.,12.0,0.,12.0
1980-11-15 19:06:25.290 ,4,1,0.,12.0,0.,12.0,0.,12.0,0.,12.0
1980-11-15 19:06:37.290 ,4,0,0.,12.0,0.,12.0,0.,12.0,0.,12.0
1980-11-15 19:06:49.290 ,4,0,0.,12.0,0.,12.0,0.,12.0,0.,12.0
1980-11-15 19:07:01.290 ,5,1,0.,12.0,0.,12.0,0.,12.0,0.,12.0
1980-11-15 19:07:13.290 ,5,1,0.,12.0,0.,12.0,0.,12.0,0.,12.0
1980-11-15 19:07:25.290 ,5,0,0.,12.0,0.,12.0,0.,12.0,0.,12.0
1980-11-15 19:07:37.290 ,5,0,0.,12.0,0.,12.0,0.,12.0,0.,12.0
1980-11-15 19:07:49.290 ,6,1,0.,12.0,0.,12.0,0.,12.0,0.,12.0
1980-11-15 19:08:01.290 ,6,1,0.,12.0,0.,12.0,0.,12.0,0.,12.0
1980-11-15 19:08:13.290 ,6,0,0.,12.0,0.,12.0,0.,12.0,0.,12.0
1980-11-15 19:08:25.290 ,6,0,0.,12.0,0.,12.0,0.,12.0,0.,12.0
1980-11-15 19:08:37.290 ,7,1,0.,12.0,0.,12.0,0.,12.0,0.,12.0
1980-11-15 19:08:49.290 ,7,1,0.,12.0,1.,12.0,0.,12.0,0.,12.0
1980-11-15 19:09:01.290 ,7,0,0.,12.0,2.,12.0,0.,12.0,0.,12.0
1980-11-15 19:09:13.290 ,7,0,0.,12.0,1.,12.0,0.,12.0,0.,12.0
1980-11-15 19:09:25.290 ,7,1,0.,12.0,8.,12.0,0.,12.0,0.,12.0
1980-11-15 19:09:37.290 ,7,1,0.,12.0,3.,12.0,0.,12.0,0.,12.0
1980-11-15 19:09:49.290 ,7,0,0.,12.0,2.,12.0,0.,12.0,0.,12.0
1980-11-15 19:10:01.290 ,7,0,0.,12.0,5.,12.0,0.,12.0,0.,12.0
1980-11-15 19:10:13.290 ,6,1,0.,12.0,2.,12.0,0.,12.0,0.,12.0
1980-11-15 19:10:25.290 ,6,1,0.,12.0,0.,12.0,0.,12.0,0.,12.0
1980-11-15 19:10:37.290 ,6,0,0.,12.0,0.,12.0,0.,12.0,0.,12.0
1980-11-15 19:10:49.290 ,6,0,0.,12.0,0.,12.0,0.,12.0,0.,12.0
1980-11-15 19:11:01.290 ,5,1,0.,12.0,0.,12.0,0.,12.0,0.,12.0
1980-11-15 19:11:13.290 ,5,1,0.,12.0,0.,12.0,0.,12.0,0.,12.0
1980-11-15 19:11:25.290 ,5,0,0.,12.0,0.,12.0,0.,12.0,0.,12.0
1980-11-15 19:11:37.290 ,5,0,0.,12.0,0.,12.0,0.,12.0,0.,12.0
1980-11-15 19:11:49.290 ,4,1,0.,12.0,0.,12.0,0.,12.0,0.,12.0
1980-11-15 19:12:01.290 ,4,1,0.,12.0,0.,12.0,0.,12.0,0.,12.0
1980-11-15 19:12:13.290 ,4,0,0.,12.0,0.,12.0,0.,12.0,0.,12.0
1980-11-15 19:12:25.290 ,4,0,0.,12.0,0.,12.0,0.,12.0,0.,12.0
1980-11-15 19:12:37.290 ,3,1,0.,12.0,0.,12.0,0.,12.0,0.,12.0
1980-11-15 19:12:49.290 ,3,1,0.,12.0,0.,12.0,0.,12.0,0.,12.0
1980-11-15 19:13:01.290 ,3,0,0.,12.0,0.,12.0,0.,12.0,0.,12.0
1980-11-15 19:13:13.290 ,3,0,0.,12.0,0.,12.0,0.,12.0,0.,12.0
1980-11-15 19:13:25.290 ,2,1,0.,12.0,0.,12.0,0.,12.0,0.,12.0
1980-11-15 19:13:37.290 ,2,1,0.,12.0,0.,12.0,0.,12.0,0.,12.0
1980-11-15 19:13:49.290 ,2,0,0.,12.0,0.,12.0,0.,12.0,0.,12.0
1980-11-15 19:14:01.290 ,2,0,0.,12.0,0.,12.0,0.,12.0,0.,12.0
1980-11-15 19:14:13.290 ,1,1,0.,12.0,0.,12.0,0.,12.0,0.,12.0
1980-11-15 19:14:25.290 ,1,1,0.,12.0,0.,12.0,0.,12.0,0.,12.0
1980-11-15 19:14:37.290 ,1,0,0.,12.0,0.,12.0,0.,12.0,0.,12.0
1980-11-15 19:14:49.290 ,1,0,0.,12.0,0.,12.0,0.,12.0,0.,12.0
1980-11-15 19:15:01.290 ,0,1,0.,12.0,0.,12.0,0.,12.0,0.,12.0
1980-11-15 19:15:13.290 ,0,1,0.,12.0,0.,12.0,0.,12.0,0.,12.0
1980-11-15 19:15:25.290 ,0,0,0.,12.0,0.,12.0,0.,12.0,0.,12.0
1980-11-15 19:15:37.290 ,0,0,0.,12.0,0.,12.0,0.,12.0,0.,12.0
1980-11-15 19:15:49.290 ,0,1,0.,12.0,0.,12.0,0.,12.0,0.,12.0
1980-11-15 19:16:01.290 ,0,1,0.,12.0,0.,12.0,0.,12.0,0.,12.0
1980-11-15 19:16:13.290 ,0,0,0.,12.0,0.,12.0,0.,12.0,0.,12.0
1980-11-15 19:16:25.290 ,0,0,0.,12.0,0.,12.0,0.,12.0,0.,12.0
1980-11-15 19:16:37.290 ,1,1,0.,12.0,0.,12.0,0.,12.0,0.,12.0
1980-11-15 19:16:49.290 ,1,1,0.,12.0,0.,12.0,0.,12.0,0.,12.0
1980-11-15 19:17:01.290 ,1,0,0.,12.0,0.,12.0,0.,12.0,0.,12.0
1980-11-15 19:17:13.290 ,1,0,0.,12.0,0.,12.0,0.,12.0,0.,12.0
1980-11-15 19:17:25.290 ,2,1,0.,12.0,0.,12.0,0.,12.0,0.,12.0
1980-11-15 19:17:37.290 ,2,1,0.,12.0,0.,12.0,0.,12.0,0.,12.0
1980-11-15 19:17:49.290 ,2,0,0.,12.0,0.,12.0,0.,12.0,0.,12.0
1980-11-15 19:18:01.290 ,2,0,0.,12.0,0.,12.0,0.,12.0,0.,12.0
1980-11-15 19:18:13.290 ,3,1,0.,12.0,0.,12.0,0.,12.0,0.,12.0
1980-11-15 19:18:25.290 ,3,1,0.,12.0,0.,12.0,0.,12.0,0.,12.0
1980-11-15 19:18:37.290 ,3,0,0.,12.0,0.,12.0,0.,12.0,0.,12.0
1980-11-15 19:18:49.290 ,3,0,0.,12.0,0.,12.0,0.,12.0,0.,12.0
1980-11-15 19:19:01.290 ,4,1,0.,12.0,0.,12.0,0.,12.0,0.,12.0
1980-11-15 19:19:13.290 ,4,1,0.,12.0,0.,12.0,0.,12.0,0.,12.0
1980-11-15 19:19:25.290 ,4,0,0.,12.0,0.,12.0,0.,12.0,0.,12.0
1980-11-15 19:19:37.290 ,4,0,0.,12.0,0.,12.0,0.,12.0,0.,12.0
1980-11-15 19:19:49.290 ,5,1,0.,12.0,0.,12.0,0.,12.0,0.,12.0
1980-11-15 19:20:01.290 ,5,1,0.,12.0,0.,12.0,0.,12.0,0.,12.0
1980-11-15 19:20:13.290 ,5,0,0.,12.0,0.,12.0,0.,12.0,0.,12.0
1980-11-15 19:20:25.290 ,5,0,0.,12.0,0.,12.0,0.,12.0,0.,12.0